KINEIS-1C

Last updated on Mon Dec 15 2025 00:02:49 GMT+0000 (Coordinated Universal Time)

1 60081U 24114C 25348.36374344 .00001414 00000+0 19316-3 0 9995 2 60081 98.0000 8.1485 0002344 80.0670 280.0807 14.80173197 80031
UTC large
Height (km)
Speed (km/s)
/
Latitude / Longitude
Inclination (degrees)
Orbital Period (minutes)
Azimuth
Elevation
Range (km)
Doppler Factor

Next 0 passes for location: London (51.5072 / 0.1276)

Sorry there are no passes over London.